Notices

What's New in latest Release from April 7th, 2021:

- Updated Glossary, including Speed of Maximum Gust, and Total Hourly Precipitation

- Updated national and regional climate services offices contacts and prices information

- Addition of station inventory lists for 1981-2010, 1971-2000, and 1961-1990 Normals.

If you haven't already, please take our survey and provide feedback about our website: https://eccc.sondage-survey.ca/f/LanguageSelection.aspx?s=442ca660-fcf1-47c0-95a9-59707d6fd709

Hourly Data Report for July 26, 2018

OTTAWA INTL A
ONTARIO
Current Station Operator: NAVCAN

45°19'00.000" N
75°40'00.000" W
114.90 m
6106001
71628
YOW

Download Data

Hourly Data (July 2018)
Hourly Data Report for July 26, 2018
TIME
LST
Temp Definition
°C
Dew Point Definition
°C
Rel Hum Definition
%
Precip. Amount Definition
mm

Wind Dir Definition
10's deg

Wind Spd Definition
km/h
Visibility Definition
km
Stn Press Definition
kPa
Hmdx Definition


Wind Chill Definition


Weather Definition


00:00 20.9 20.6 98   36 2 12.9 99.58 29   LegendNANA
01:00 19.7 19.4 98   15 5 1.6 99.52     Fog
02:00 20.6 20.3 99   21 7 0.2 99.50 28   Fog
03:00 20.8 20.6 99   20 8 0.4 99.50 29   Fog
04:00 20.9 20.7 99   20 5 1.2 99.48 29   Fog
05:00 21.0 20.8 99   36 1 0.2 99.47 29   Fog
06:00 21.1 20.9 99   36 1 0.8 99.49 29   Fog
07:00 21.2 21.0 99   14 10 1.0 99.50 30   Fog
08:00 20.5 20.2 99   25 18 1.6 99.56 28   Drizzle,Fog
09:00 21.9 18.6 81   26 10 24.1 99.56 28   LegendNANA
10:00 23.9 18.2 70   25 3 24.1 99.56 30   Mainly Clear
11:00 26.3 17.3 57   24 12 24.1 99.56 32   LegendNANA
12:00 27.4 16.3 50   25 14 24.1 99.53 32   LegendNANA
13:00 28.2 17.2 50   26 12 24.1 99.51 34   Mainly Clear
14:00 28.6 16.9 49   22 10 24.1 99.49 34   LegendNANA
15:00 29.6 14.2 38   22 18 24.1 99.46 33   LegendNANA
16:00 29.4 15.2 42   20 18 24.1 99.43 33   Mainly Clear
17:00 28.9 15.7 44   22 15 24.1 99.48 33   LegendNANA
18:00 27.0 16.8 53   22 13 24.1 99.54 32   LegendNANA
19:00 22.6 13.6 56   29 33 24.1 99.68 26   Mostly Cloudy
20:00 20.3 15.4 73   28 13 24.1 99.74 25   LegendNANA
21:00 19.7 15.2 75   20 6 24.1 99.71     LegendNANA
22:00 19.4 15.7 79   33 15 24.1 99.75     Mostly Cloudy
23:00 18.3 15.9 86   12 10 24.1 99.66     LegendNANA

Notes on Data Quality.

Legend

  • E = Estimated
  • M = Missing
  • NA = Not Available*
  • [empty] = Indicates an unobserved value
Date modified: